[[{"header":{"parameterUnit":"m.s-1","parameterCategory":1,"la1":30.2991,"la2":30.254,"lo1":-89.0895,"lo2":-89.0444,"dy":0.0017,"dx":0.0017,"nx":28,"ny":28,"refTime":"2025-08-13T03:00:00:Z","depth":0,"parameterNumber":2,"parameterNumberName":"U-component_of_WINDS"},"data":[0,0,0,0,0,0,0,0,0,0,0,0,0,0,0,0,0,0,0,0,0,0,0,0,0,0,0,0,0,0,0,0,0,0,0,0,0,0,0,0,0,0,0,0,0,0,0,0,0,0,0,0,0,0,0,0,0,0,4.0481,4.0481,0,4.0479,4.0479,4.0479,4.0406,4.0404,4.0402,4.04,4.0399,4.04,4.0402,0,0,0,0,0,0,0,0,0,0,0,0,0,4.0421,4.0422,4.0481,4.0481,4.048,4.0479,4.0479,4.0479,4.0406,4.0404,4.0401,4.0399,4.0398,4.04,4.0402,0,0,0,0,0,0,0,0,0,0,0,0,0,4.0436,4.0423,4.0481,4.0444,4.0441,4.0479,4.0479,4.0479,4.0407,4.0404,4.0401,4.0398,4.0397,4.04,4.0403,4.0476,0,0,4.041,4.0412,0,0,0,0,0,0,0,0,4.0435,4.0438,4.0449,4.0446,4.0443,4.044,4.0457,4.0478,4.0407,4.042,4.04,4.0397,4.0415,4.0416,4.0422,4.0476,4.0476,4.0411,4.0412,4.0413,4.0414,0,0,0,0,0,0,0,4.0434,4.0438,4.048,4.045,4.0446,4.0428,4.0427,4.0461,4.0433,4.0418,4.0413,4.0414,4.0412,4.0419,4.0421,4.0476,4.0411,4.0413,4.0415,4.0416,4.0592,4.0595,0,0,0,0,0,0,4.0438,4.0438,4.048,4.048,4.0432,4.0431,4.043,4.0444,4.0433,4.0428,4.0416,4.041,4.0416,4.0418,4.0421,4.0507,4.0413,4.0416,4.0417,4.0589,4.0593,4.0597,0,0,0,0,0,0,4.0437,4.0443,4.048,4.0457,4.0461,4.0435,4.0451,4.0445,4.0452,4.0431,4.0426,4.0428,4.0414,4.0417,4.0463,4.0506,4.0417,4.0419,4.0586,4.0591,4.0595,4.0681,0,0,0,0,0,0,4.0436,4.0443,4.047,4.0458,4.0462,4.0522,4.0454,4.0447,4.0457,4.0449,4.0441,4.0437,4.0412,4.046,4.0466,4.0508,4.0421,4.0582,4.0588,4.0593,4.0674,4.0688,4.0699,0,0,0,0,0,4.0434,4.0494,4.0472,4.0477,4.0496,4.0525,4.0527,4.0497,4.046,4.0488,4.0475,4.0437,4.0501,4.0465,4.0471,4.0515,4.0579,4.0586,4.0593,4.0668,4.0685,4.0699,0,0,0,0,0,0,4.051,4.0491,4.0467,4.0524,4.0527,4.0513,4.0546,4.0516,4.0528,4.0521,4.0483,4.0482,4.0535,4.0529,4.049,4.0587,4.0533,4.0542,4.0588,4.0604,4.0617,4.0617,4.0424,0,0,0,0,0,4.0534,4.0559,4.0541,4.0594,4.0596,4.0572,4.0583,4.056,4.0561,4.0562,4.0552,4.0554,4.0575,4.0589,4.0607,4.0673,4.0671,4.0706,4.0719,4.073,4.0738,4.0774,4.079,4.062,4.062,4.0619,0,0,4.0582,4.0575,4.0593,4.0609,4.0608,4.0636,4.0573,4.0604,4.0624,4.0566,4.061,4.0603,4.0603,4.066,4.0685,4.0658,4.0784,4.0739,4.0747,4.0749,4.0783,4.0799,4.0814,4.0624,4.0624,4.0623,0,0,4.0685,4.0682,4.0727,4.0728,4.0728,4.0711,4.0722,4.0713,4.0706,4.0749,4.0707,4.0731,4.0767,4.0769,4.0775,4.0883,4.0849,4.0889,4.0956,4.0992,4.1006,4.1018,4.1057,4.1071,4.0897,4.0897,4.0898,0,4.0746,4.0786,4.0753,4.0788,4.0797,4.0747,4.0792,4.0794,4.08,4.0808,4.0777,4.0823,4.0819,4.0877,4.0904,4.091,4.0922,4.089,4.1006,4.1018,4.1028,4.1066,4.108,4.0902,4.0902,4.0901,4.0901,0,4.0861,4.089,4.0925,4.0934,4.0946,4.0986,4.0961,4.0978,4.0954,4.0941,4.0987,4.0981,4.0998,4.101,4.0987,4.1065,4.1049,4.1013,4.0958,4.105,4.1085,4.1099,4.091,4.0908,4.0906,4.0905,0,0,4.1011,4.1002,4.1016,4.102,4.1017,4.1039,4.1077,4.1094,4.111,4.1116,4.1148,4.1181,4.1149,4.1156,4.1133,4.1164,4.1251,4.1125,4.1124,4.1149,4.134,4.1367,4.1384,4.1229,4.1232,4.1234,4.134,0,4.1111,4.1177,4.115,4.1218,4.1245,4.1198,4.1232,4.1235,4.1224,4.1246,4.1233,4.1258,4.1213,4.1217,4.1246,4.1235,4.1289,4.1227,4.126,4.1261,4.1261,4.1402,4.143,4.153,4.1353,4.1355,4.1357,0,4.1237,4.125,4.1321,4.1316,4.1326,4.1357,4.1372,4.1392,4.1395,4.1385,4.1395,4.1365,4.1403,4.135,4.1402,4.1361,4.1373,4.1369,4.1372,4.1375,4.1315,4.1409,4.1561,4.1577,4.1377,4.1376,4.1374,0,4.1341,4.1376,4.1424,4.1428,4.1423,4.1446,4.1445,4.1445,4.1457,4.147,4.1478,4.1495,4.1504,4.1518,4.1495,4.1457,4.1552,4.1495,4.1546,4.1546,4.1567,4.1567,4.1725,4.1574,4.1574,4.1574,4.1574,0,4.1457,4.1503,4.1471,4.15,4.155,4.1519,4.157,4.1564,4.1564,4.1592,4.1553,4.158,4.1547,4.1571,4.1553,4.16,4.1604,4.1598,4.1593,4.1602,4.1603,4.161,4.1603,4.1578,4.1577,4.1576,4.1576,0,4.1581,4.1562,4.1611,4.1602,4.1601,4.1639,4.1632,4.1659,4.1647,4.1683,4.1689,4.1669,4.1696,4.1674,4.1699,4.1687,4.1751,4.1735,4.175,4.1746,4.1798,4.1794,4.1967,4.1989,4.1823,4.1825,4.1826,0,4.1657,4.1691,4.1687,4.1704,4.1705,4.1731,4.1745,4.1716,4.1731,4.1738,4.1765,4.1788,4.1806,4.1851,4.1839,4.1859,4.1844,4.1903,4.1846,4.1855,4.1846,4.1844,4.1848,4.1915,4.1917,4.1918,4.1919,0,4.1794,4.1783,4.1803,4.1821,4.1838,4.1851,4.186,4.1876,4.1847,4.1866,4.1893,4.1907,4.1934,4.1958,4.1974,4.1973,4.1943,4.1938,4.195,4.196,4.1968,4.1966,4.1783,4.1934,4.1932,4.1931,4.193,4.193,4.1896,4.1926,4.1928,4.1953,4.1957,4.1968,4.1993,4.1985,4.2007,4.2027,4.2009,4.2042,4.2046,4.2064,4.2068,4.2093,4.2069,4.2087,4.2092,4.2097,4.2105,4.1964,4.2096,4.2096,4.2095,4.2095,4.2095,0,4.2032,4.2032,4.2055,4.2071,4.2091,4.206,4.2069,4.2088,4.2118,4.2124,4.2142,4.2175,4.2198,4.2189,4.221,4.2233,4.222,4.224,4.2238,4.2239,4.2125,4.2113,4.2251,4.2251,4.2251,4.2251,4.2251,4.225,4.2105,4.2154,4.2143,4.2194,4.2193,4.2226,4.2234,4.2244,4.2249,4.2287,4.2307,4.2301,4.2301,4.2322,4.2343,4.234,4.235,4.2376,4.2368,4.2262,4.2247,4.2232,4.222,4.2378,4.2378,4.2479,4.248,4.2481]},{"header":{"parameterUnit":"m.s-1","parameterCategory":1,"la1":30.2991,"la2":30.254,"lo1":-89.0895,"lo2":-89.0444,"dy":0.0017,"dx":0.0017,"nx":28,"ny":28,"refTime":"2025-08-13T03:00:00:Z","depth":0,"parameterNumber":3,"parameterNumberName":"V-component_of_WINDS"},"data":[0,0,0,0,0,0,0,0,0,0,0,0,0,0,0,0,0,0,0,0,0,0,0,0,0,0,0,0,0,0,0,0,0,0,0,0,0,0,0,0,0,0,0,0,0,0,0,0,0,0,0,0,0,0,0,0,0,0,0.9528,0.9528,0,0.9528,0.9528,0.9528,0.9515,0.9514,0.9514,0.9514,0.9515,0.9516,0.9516,0,0,0,0,0,0,0,0,0,0,0,0,0,0.9516,0.9517,0.9528,0.9528,0.9528,0.9528,0.9528,0.9528,0.9515,0.9514,0.9514,0.9513,0.9515,0.9516,0.9516,0,0,0,0,0,0,0,0,0,0,0,0,0,0.9519,0.9517,0.9528,0.9521,0.952,0.9528,0.9528,0.9528,0.9515,0.9514,0.9514,0.9513,0.9515,0.9515,0.9516,0.953,0,0,0.9518,0.9518,0,0,0,0,0,0,0,0,0.9519,0.952,0.9522,0.9521,0.9521,0.9521,0.9524,0.9529,0.9515,0.9517,0.9514,0.9513,0.9518,0.9518,0.9519,0.953,0.953,0.9518,0.9518,0.9518,0.9519,0,0,0,0,0,0,0,0.9519,0.952,0.9528,0.9522,0.9521,0.9518,0.9518,0.9525,0.952,0.9517,0.9516,0.9516,0.9517,0.9519,0.9519,0.953,0.9518,0.9518,0.9519,0.9519,0.9553,0.9553,0,0,0,0,0,0,0.952,0.952,0.9528,0.9528,0.9519,0.9519,0.9519,0.9521,0.952,0.9519,0.9516,0.9515,0.9518,0.9518,0.9519,0.9535,0.9518,0.9519,0.9519,0.9552,0.9553,0.9554,0,0,0,0,0,0,0.9519,0.952,0.9528,0.9523,0.9524,0.952,0.9523,0.9522,0.9523,0.952,0.9519,0.9519,0.9518,0.9518,0.9527,0.9535,0.9519,0.952,0.9552,0.9553,0.9553,0.9568,0,0,0,0,0,0,0.9519,0.952,0.9526,0.9524,0.9524,0.9536,0.9523,0.9522,0.9524,0.9522,0.9522,0.9521,0.9517,0.9527,0.9528,0.9536,0.952,0.9551,0.9552,0.9553,0.9567,0.9569,0.9571,0,0,0,0,0,0.9519,0.953,0.9526,0.9527,0.9531,0.9536,0.9537,0.9531,0.9525,0.953,0.9528,0.9521,0.9534,0.9528,0.9529,0.9537,0.955,0.9552,0.9553,0.9566,0.9569,0.9571,0,0,0,0,0,0,0.9533,0.953,0.9525,0.9536,0.9536,0.9534,0.954,0.9535,0.9537,0.9536,0.953,0.953,0.954,0.9539,0.9532,0.9551,0.9541,0.9543,0.955,0.9553,0.9555,0.9555,0.9521,0,0,0,0,0,0.9538,0.9542,0.9539,0.9549,0.9549,0.9545,0.9547,0.9543,0.9543,0.9543,0.9542,0.9543,0.9547,0.955,0.9554,0.9567,0.9567,0.9573,0.9575,0.9577,0.9579,0.9585,0.9588,0.9558,0.9558,0.9558,0,0,0.9547,0.9545,0.9549,0.9551,0.9551,0.9556,0.9545,0.9551,0.9554,0.9544,0.9553,0.9552,0.9553,0.9564,0.9568,0.9564,0.9587,0.9579,0.958,0.9581,0.9587,0.959,0.9592,0.9559,0.9559,0.9558,0,0,0.9566,0.9565,0.9573,0.9573,0.9573,0.957,0.9572,0.9571,0.957,0.9578,0.957,0.9575,0.9582,0.9583,0.9585,0.9604,0.9598,0.9606,0.9618,0.9624,0.9626,0.9629,0.9635,0.9638,0.9607,0.9607,0.9607,0,0.9577,0.9584,0.9578,0.9584,0.9586,0.9577,0.9585,0.9585,0.9587,0.9588,0.9583,0.9592,0.9592,0.9603,0.9607,0.9609,0.9611,0.9606,0.9627,0.9629,0.963,0.9637,0.964,0.9608,0.9608,0.9608,0.9608,0,0.9598,0.9603,0.961,0.9611,0.9613,0.962,0.9616,0.9619,0.9615,0.9612,0.9621,0.962,0.9624,0.9626,0.9622,0.9637,0.9634,0.9628,0.9618,0.9634,0.964,0.9643,0.9609,0.9609,0.9609,0.9609,0,0,0.9626,0.9623,0.9626,0.9626,0.9626,0.963,0.9637,0.964,0.9642,0.9644,0.965,0.9656,0.965,0.9652,0.9648,0.9654,0.967,0.9647,0.9647,0.9651,0.9685,0.969,0.9693,0.9666,0.9666,0.9667,0.9685,0,0.9644,0.9655,0.965,0.9662,0.9667,0.9658,0.9664,0.9665,0.9663,0.9667,0.9665,0.967,0.9662,0.9663,0.9668,0.9667,0.9676,0.9665,0.9671,0.9672,0.9671,0.9696,0.9701,0.9718,0.9688,0.9688,0.9688,0,0.9667,0.9669,0.9681,0.9679,0.9681,0.9687,0.9689,0.9693,0.9693,0.9692,0.9694,0.9688,0.9696,0.9686,0.9696,0.9689,0.9691,0.9691,0.9691,0.9691,0.9681,0.9697,0.9723,0.9726,0.9692,0.9692,0.9691,0,0.9685,0.9691,0.9699,0.97,0.9698,0.9702,0.9702,0.9702,0.9704,0.9707,0.9708,0.9711,0.9713,0.9716,0.9712,0.9706,0.9723,0.9713,0.9722,0.9722,0.9725,0.9725,0.9753,0.9727,0.9727,0.9727,0.9727,0,0.9706,0.9714,0.9707,0.9712,0.9721,0.9715,0.9724,0.9723,0.9723,0.9728,0.9721,0.9726,0.9721,0.9725,0.9722,0.9731,0.9732,0.9731,0.973,0.9731,0.9731,0.9732,0.9731,0.9728,0.9728,0.9728,0.9727,0,0.9728,0.9724,0.9732,0.973,0.973,0.9736,0.9735,0.9739,0.9737,0.9743,0.9745,0.9741,0.9746,0.9743,0.9748,0.9746,0.9757,0.9755,0.9757,0.9756,0.9765,0.9764,0.9794,0.9797,0.977,0.977,0.977,0,0.9741,0.9747,0.9745,0.9748,0.9748,0.9752,0.9754,0.9749,0.9752,0.9753,0.9758,0.9762,0.9765,0.9773,0.9772,0.9775,0.9773,0.9783,0.9773,0.9775,0.9773,0.9772,0.9773,0.9785,0.9785,0.9786,0.9786,0,0.9765,0.9762,0.9766,0.9768,0.9771,0.9773,0.9774,0.9777,0.9772,0.9775,0.978,0.9782,0.9787,0.9791,0.9795,0.9795,0.979,0.9789,0.9791,0.9792,0.9793,0.9793,0.9762,0.9788,0.9788,0.9788,0.9788,0.9788,0.9782,0.9787,0.9787,0.9791,0.9791,0.9793,0.9797,0.9795,0.9799,0.9802,0.9799,0.9805,0.9806,0.9809,0.981,0.9815,0.9811,0.9814,0.9815,0.9816,0.9817,0.9793,0.9816,0.9816,0.9816,0.9815,0.9815,0,0.9805,0.9805,0.9808,0.981,0.9814,0.9808,0.981,0.9813,0.9818,0.9819,0.9822,0.9827,0.9832,0.983,0.9834,0.9838,0.9836,0.984,0.9839,0.9839,0.982,0.9818,0.9841,0.9841,0.9841,0.9841,0.9841,0.9841,0.9818,0.9825,0.9823,0.9831,0.9831,0.9836,0.9837,0.9839,0.9839,0.9846,0.9849,0.9848,0.9849,0.9853,0.9856,0.9856,0.9858,0.9862,0.9861,0.9843,0.984,0.9838,0.9836,0.9862,0.9863,0.9879,0.9879,0.9879]}]]